Location: Zilina
(0.0000°N, 18.7333°E)
Time: 01:14:52
(UTC+02:00)

Daily predictions for brighter satellites

Satellite Brightness Start Highest point End
(mag) Time Altitude Azimuth Time Altitude Azimuth Time Altitude Azimuth
Cosmos 1980 Rocket 4.4 04:07:06 16° N 04:07:06 16° N 04:08:14 10° N
ARIANE 5 DEB (SYLDA) 4.3 04:03:50 74° NE 04:03:50 74° NE 04:12:29 10° E
Atlas Centaur 2 3.3 04:10:07 45° NE 04:10:07 45° NE 04:13:54 10° ENE
ARIANE 5 R/B 3.1 04:13:33 57° SE 04:13:33 57° SE 04:30:38 10° E
CENTAUR R/B 4.2 04:13:33 18° SE 04:14:18 18° ESE 04:17:51 10° ENE
Aurora 2 Rocket 4.4 04:15:06 48° SE 04:15:06 48° SE 04:23:37 10° E
SL-16 R/B 3.5 04:25:03 31° SE 04:26:29 35° ESE 04:31:35 10° NE
SEDSat Delta rocket 4.2 04:36:16 41° NE 04:36:16 41° NE 04:39:11 10° NE
Cosmos 2297 Rocket 3.8 04:31:34 10° NNE 04:36:33 32° ENE 04:41:32 10° SE
BREEZE-M DEB (TANK) 4.3 04:39:11 36° ESE 04:39:11 36° ESE 04:43:31 10° SE
METEOR-M 4.3 04:35:45 10° NNE 04:41:02 66° ESE 04:41:52 57° SSE
ALOS 3.5 04:39:57 10° N 04:42:31 33° N 04:42:31 33° N
ERBS 4.2 04:56:29 25° ESE 04:56:29 25° ESE 04:58:14 10° SE
Cosmos 2322 Rocket 2.6 04:56:22 23° S 04:59:46 60° ESE 05:05:18 10° NNE
SWIFT 2.3 05:03:36 75° N 05:03:36 75° N 05:07:44 10° ENE
ARIANE 5 DEB (SYLDA) 3.6 05:02:28 53° WSW 05:03:35 71° S 05:07:14 10° E
NOSS 3-2 (A) 3.0 05:03:55 59° W 05:04:26 62° WNW 05:09:42 10° NNE
Meteor 1-31 Rocket 4.0 05:00:52 10° NNE 05:04:33 40° ESE 05:07:25 15° SSE
Cosmos 1484 Rocket 4.1 05:01:32 10° N 05:03:34 28° NNW 05:03:34 28° NNW
Ariane H10 2.2 05:05:54 73° NNW 05:05:56 73° N 05:11:29 10° E
ARIANE 5 R/B 2.4 05:06:22 51° SSW 05:06:45 54° S 05:17:47 10° E
Cosmos 2219 3.7 05:01:54 10° N 05:07:32 62° ENE 05:13:12 10° SSE
Ariane H10 3.6 04:59:16 26° W 05:09:16 87° S 05:13:41 10° E
FENGYUN 3A 4.5 05:06:30 10° NNW 05:10:27 32° WNW 05:10:27 32° WNW
USA 238 DEB 3.4 05:08:57 30° SSW 05:12:21 82° WNW 05:18:49 10° NNE
USA 238 3.4 05:09:01 30° SSW 05:12:28 82° WNW 05:18:56 10° NNE
CZ-3 R/B 3.8 04:33:43 10° WNW 05:14:45 59° SW 05:24:14 10° SE
GPS 2-18 Rocket1 4.0 05:20:25 25° NW 05:22:14 45° NNE 05:26:00 10° E
Okean 1-7 Rocket 3.4 05:20:13 18° S 05:23:28 77° W 05:27:56 10° N
Cosmos 1300 3.8 05:20:46 10° NNW 05:22:56 28° NW 05:22:56 28° NW
Timation 2 Rocket 4.0 05:18:24 10° NNW 05:24:27 82° ENE 05:30:43 10° SSE
H-2A R/B 4.2 05:22:03 10° NNE 05:25:31 37° ESE 05:29:03 10° S
SL-24 R/B 3.7 05:21:45 10° SSE 05:25:45 86° E 05:29:26 10° N
Cosmos 1452 Rocket 4.4 05:26:52 28° W 05:27:04 28° WNW 05:31:31 10° NNW
Cosmos 2360 Rocket 2.8 05:22:47 10° S 05:28:20 58° ESE 05:33:52 10° NNE
Centaur AC-42 4.0 05:24:56 20° WNW 05:29:19 48° N 06:04:41 10° ENE
Cosmos 614 Rocket 4.1 05:24:47 10° NNW 05:29:41 49° WSW 05:34:40 10° S
BLOCK DM-SL R/B 3.3 05:20:35 21° W 05:31:45 88° S 05:35:31 10° E
Cosmos 1464 Rocket 4.0 05:26:08 10° N 05:32:20 86° E 05:38:37 10° S
Centaur D-1AR AC-38 3.1 05:29:33 19° WNW 05:32:40 88° NNE 05:36:33 10° ESE
Cosmos 2228 2.9 05:28:25 10° N 05:32:41 81° W 05:37:02 10° S
Cosmos 1513 Rocket 4.3 05:27:50 10° N 05:33:57 82° W 05:40:02 10° S
ASTEX 1 4.2 05:30:36 10° SSE 05:35:24 55° E 05:40:12 10° N
GPS 2-17 Rocket1 3.8 05:32:12 13° NW 05:35:55 47° NNE 05:40:09 10° E
SJ-12 3.8 05:32:11 10° N 05:36:16 66° WNW 05:40:21 10° SSW
Cosmos 407 Rocket 3.6 05:31:52 10° N 05:37:12 84° ENE 05:42:32 10° SSE
Cosmos 1346 Rocket 4.1 05:38:51 21° WNW 05:38:51 21° WNW 05:41:17 10° NNW
Cosmos 1331 Rocket 4.1 05:39:53 10° SSW 05:44:48 53° WNW 05:49:47 10° N
Cosmos 1455 3.6 05:42:24 10° NNE 05:46:02 41° E 05:49:41 10° SSE
Cosmos 1328 3.7 05:42:27 10° S 05:46:31 83° W 05:50:33 10° N
Gblst 52 Del rocket 4.1 05:43:19 10° NW 05:48:47 90° SW 05:54:32 10° SE
Cosmos 2333 Rocket 3.8 05:47:13 10° S 05:52:25 36° ESE 05:57:37 10° NE
ARIANE 5 DEB (SYLDA) 4.3 05:44:27 14° W 05:52:49 79° N 06:01:22 10° E
Cosmos 405 3.5 05:53:04 10° NNW 05:56:18 36° W 05:59:32 10° SSW
Atlas Centaur 2 3.8 05:52:43 10° WNW 05:56:54 19° NW 06:00:39 10° N
Envisat 3.0 05:53:10 10° NNE 05:58:14 89° WNW 06:03:20 10° SSW
IUS-15 SRM-1 4.3 05:57:51 12° W 06:01:09 24° NW 06:03:06 10° NNE
Cosmos 1441 Rocket 3.1 05:59:06 10° SSW 06:02:52 67° W 06:06:40 10° N
CENTAUR R/B 3.2 06:00:47 12° WSW 06:04:27 25° WNW 06:08:50 10° N
COSMOS 2455 3.4 06:00:22 10° NW 06:05:46 36° WSW 06:11:12 10° S
deb Centaur AC-2 4.2 06:02:53 12° WSW 06:07:08 59° NNW 06:11:22 10° NE
Myojo/LAPS 4.5 06:04:06 10° SW 06:07:19 68° SE 06:19:05 10° ENE
USA 32 4.4 06:02:27 10° NNW 06:07:23 42° W 06:12:20 10° SSW
ARIANE 5 DEB (SYLDA) 3.5 06:05:33 11° WSW 06:08:55 49° S 06:16:24 10° E
SL-16 R/B 3.8 06:07:03 10° WSW 06:10:17 16° WNW 06:13:32 10° NW
ARIANE 5 DEB (SYLDA) 3.0 06:06:29 10° WSW 06:10:24 30° S 06:12:40 10° ESE
Cosmos 2058 Rocket 3.1 06:06:17 10° N 06:10:46 80° W 06:15:16 10° S
CZ-4C R/B 3.1 06:08:19 10° S 06:11:41 48° WSW 06:14:56 10° NNW
Ariane H10 2.6 06:09:56 10° WNW 06:12:03 37° N 06:14:09 10° ENE
Ariane H10+ 2.1 06:06:38 10° W 06:12:15 35° SSW 06:14:49 10° SE
Meteor PRIRODA 4.1 06:12:40 10° N 06:16:05 41° WNW 06:19:33 10° SSW
Cosmos 2227 Rocket 3.0 06:11:26 10° NW 06:16:07 27° WSW 06:20:51 10° SSW
Timation 1 Rocket 4.5 06:10:49 10° NNW 06:16:36 54° WSW 06:22:25 10° S
COSMO-SKYMED 1 3.5 06:12:29 10° SSE 06:16:44 55° ENE 06:20:58 10° N
Cosmos 1825 Rocket 4.4 06:13:19 10° S 06:17:33 55° E 06:21:46 10° NNE
H-2A R/B 4.3 06:12:14 10° W 06:19:11 18° SW 06:22:10 10° S
SJ-7 4.4 06:15:41 10° N 06:19:41 62° WNW 06:23:40 10° SSW
Cosmos 2297 Rocket 3.5 06:16:43 10° WNW 06:20:18 17° WSW 06:23:53 10° SW
Cosmos 2333 4.3 06:15:57 10° SSW 06:21:39 81° WNW 06:27:24 10° NNE
BLOCK DM-SL R/B 2.9 06:23:36 10° W 06:45:07 87° S 06:48:46 10° E
